owner,sensor,date,latitude,longitude,vertical_datum,sea_water_temperature,qcFlag
Woodside,ioos:station:wmo:42874:2,2022-08-01T00:03:00Z,27.3171,-90.1111,30.0,30.2,11111222
Woodside,ioos:station:wmo:42874:2,2022-08-01T00:13:00Z,27.3171,-90.1111,30.0,30.2,11111222
Woodside,ioos:station:wmo:42874:2,2022-08-01T00:23:00Z,27.3171,-90.1111,30.0,30.2,11111222
Woodside,ioos:station:wmo:42874:2,2022-08-01T00:33:00Z,27.3171,-90.1111,30.0,30.2,11111222
Woodside,ioos:station:wmo:42874:2,2022-08-01T00:44:00Z,27.3171,-90.1111,30.0,30.2,11111222
Woodside,ioos:station:wmo:42874:2,2022-08-01T00:54:00Z,27.3171,-90.1111,30.0,30.1,11111222
Woodside,ioos:station:wmo:42874:2,2022-08-01T01:03:00Z,27.3170,-90.1111,30.0,30.2,11111222
Woodside,ioos:station:wmo:42874:2,2022-08-01T01:14:00Z,27.3170,-90.1112,30.0,30.1,11111222
Woodside,ioos:station:wmo:42874:2,2022-08-01T01:23:00Z,27.3170,-90.1111,30.0,30.2,11111222
Woodside,ioos:station:wmo:42874:2,2022-08-01T01:33:00Z,27.3170,-90.1111,30.0,30.1,11111222
Woodside,ioos:station:wmo:42874:2,2022-08-01T01:44:00Z,27.3171,-90.1111,30.0,30.2,11111222
Woodside,ioos:station:wmo:42874:2,2022-08-01T01:53:00Z,27.3171,-90.1111,30.0,30.1,11111222
Woodside,ioos:station:wmo:42874:2,2022-08-01T02:04:00Z,27.3171,-90.1111,30.0,30.2,11111222
Woodside,ioos:station:wmo:42874:2,2022-08-01T02:13:00Z,27.3171,-90.1111,30.0,30.2,11111222
Woodside,ioos:station:wmo:42874:2,2022-08-01T02:24:00Z,27.3171,-90.1111,30.0,30.1,11111222
Woodside,ioos:station:wmo:42874:2,2022-08-01T02:33:00Z,27.3171,-90.1111,30.0,30.1,11111222
Woodside,ioos:station:wmo:42874:2,2022-08-01T02:43:00Z,27.3171,-90.1110,30.0,30.2,11111222
Woodside,ioos:station:wmo:42874:2,2022-08-01T02:53:00Z,27.3171,-90.1110,30.0,30.2,11111222
Woodside,ioos:station:wmo:42874:2,2022-08-01T03:02:00Z,27.3171,-90.1110,30.0,30.2,11111222
Woodside,ioos:station:wmo:42874:2,2022-08-01T03:13:00Z,27.3171,-90.1110,30.0,30.2,11111222
Woodside,ioos:station:wmo:42874:2,2022-08-01T03:24:00Z,27.3171,-90.1110,30.0,30.2,11111222
Woodside,ioos:station:wmo:42874:2,2022-08-01T03:34:00Z,27.3172,-90.1114,30.0,30.2,11111222
Woodside,ioos:station:wmo:42874:2,2022-08-01T03:43:00Z,27.3172,-90.1114,30.0,30.2,11111222
Woodside,ioos:station:wmo:42874:2,2022-08-01T03:53:00Z,27.3172,-90.1114,30.0,30.2,11111222
Woodside,ioos:station:wmo:42874:2,2022-08-01T04:03:00Z,27.3172,-90.1114,30.0,30.2,11111222
Woodside,ioos:station:wmo:42874:2,2022-08-01T04:14:00Z,27.3172,-90.1113,30.0,30.2,11111222
Woodside,ioos:station:wmo:42874:2,2022-08-01T04:23:00Z,27.3172,-90.1113,30.0,30.2,11111222
Woodside,ioos:station:wmo:42874:2,2022-08-01T04:33:00Z,27.3172,-90.1113,30.0,30.2,11111222
Woodside,ioos:station:wmo:42874:2,2022-08-01T04:43:00Z,27.3172,-90.1113,30.0,30.2,11111222
Woodside,ioos:station:wmo:42874:2,2022-08-01T04:53:00Z,27.3172,-90.1113,30.0,30.2,11111222
Woodside,ioos:station:wmo:42874:2,2022-08-01T05:04:00Z,27.3172,-90.1113,30.0,30.2,11111222
Woodside,ioos:station:wmo:42874:2,2022-08-01T05:13:00Z,27.3172,-90.1113,30.0,30.2,11111222
Woodside,ioos:station:wmo:42874:2,2022-08-01T05:24:00Z,27.3172,-90.1113,30.0,30.2,11111222
Woodside,ioos:station:wmo:42874:2,2022-08-01T05:33:00Z,27.3171,-90.1112,30.0,30.2,11111222
Woodside,ioos:station:wmo:42874:2,2022-08-01T05:43:00Z,27.3171,-90.1112,30.0,30.2,11111222
Woodside,ioos:station:wmo:42874:2,2022-08-01T05:54:00Z,27.3171,-90.1112,30.0,30.2,11111222
Woodside,ioos:station:wmo:42874:2,2022-08-01T06:03:00Z,27.3174,-90.1112,30.0,30.2,11111222
Woodside,ioos:station:wmo:42874:2,2022-08-01T06:13:00Z,27.3174,-90.1112,30.0,30.2,11111222
Woodside,ioos:station:wmo:42874:2,2022-08-01T06:24:00Z,27.3174,-90.1112,30.0,30.2,11111222
Woodside,ioos:station:wmo:42874:2,2022-08-01T06:33:00Z,27.3172,-90.1114,30.0,30.2,11111222
Woodside,ioos:station:wmo:42874:2,2022-08-01T06:43:00Z,27.3172,-90.1113,30.0,30.2,11111222
Woodside,ioos:station:wmo:42874:2,2022-08-01T06:54:00Z,27.3172,-90.1113,30.0,30.2,11111222
Woodside,ioos:station:wmo:42874:2,2022-08-01T07:04:00Z,27.3172,-90.1112,30.0,30.1,11111222
Woodside,ioos:station:wmo:42874:2,2022-08-01T07:13:00Z,27.3172,-90.1112,30.0,30.1,11111222
Woodside,ioos:station:wmo:42874:2,2022-08-01T07:25:00Z,27.3172,-90.1112,30.0,30.1,11111222
Woodside,ioos:station:wmo:42874:2,2022-08-01T07:34:00Z,27.3172,-90.1112,30.0,30.2,11111222
Woodside,ioos:station:wmo:42874:2,2022-08-01T07:44:00Z,27.3172,-90.1112,30.0,30.1,11111222
Woodside,ioos:station:wmo:42874:2,2022-08-01T07:54:00Z,27.3171,-90.1111,30.0,30.1,11111222
Woodside,ioos:station:wmo:42874:2,2022-08-01T08:03:00Z,27.3171,-90.1111,30.0,30.1,11111222
Woodside,ioos:station:wmo:42874:2,2022-08-01T08:14:00Z,27.3171,-90.1111,30.0,30.2,11111222
Woodside,ioos:station:wmo:42874:2,2022-08-01T08:24:00Z,27.3170,-90.1111,30.0,30.1,11111222
Woodside,ioos:station:wmo:42874:2,2022-08-01T08:34:00Z,27.3170,-90.1111,30.0,30.1,11111222
Woodside,ioos:station:wmo:42874:2,2022-08-01T08:43:00Z,27.3170,-90.1111,30.0,30.1,11111222
Woodside,ioos:station:wmo:42874:2,2022-08-01T08:54:00Z,27.3171,-90.1112,30.0,30.0,11111222
Woodside,ioos:station:wmo:42874:2,2022-08-01T09:04:00Z,27.3171,-90.1112,30.0,30.0,11111222
Woodside,ioos:station:wmo:42874:2,2022-08-01T09:13:00Z,27.3171,-90.1114,30.0,30.0,11111222
Woodside,ioos:station:wmo:42874:2,2022-08-01T09:23:00Z,27.3171,-90.1114,30.0,30.1,11111222
Woodside,ioos:station:wmo:42874:2,2022-08-01T09:34:00Z,27.3171,-90.1113,30.0,30.1,11111222
Woodside,ioos:station:wmo:42874:2,2022-08-01T09:44:00Z,27.3171,-90.1112,30.0,30.1,11111222
Woodside,ioos:station:wmo:42874:2,2022-08-01T09:54:00Z,27.3171,-90.1112,30.0,30.1,11111222
Woodside,ioos:station:wmo:42874:2,2022-08-01T10:03:00Z,27.3171,-90.1112,30.0,30.1,11111222
Woodside,ioos:station:wmo:42874:2,2022-08-01T10:14:00Z,27.3171,-90.1112,30.0,30.0,11111222
Woodside,ioos:station:wmo:42874:2,2022-08-01T10:25:00Z,27.3171,-90.1112,30.0,29.8,11111222
Woodside,ioos:station:wmo:42874:2,2022-08-01T10:34:00Z,27.3171,-90.1112,30.0,29.9,11111222
Woodside,ioos:station:wmo:42874:2,2022-08-01T10:44:00Z,27.3171,-90.1112,30.0,29.7,11111222
Woodside,ioos:station:wmo:42874:2,2022-08-01T10:55:00Z,27.3171,-90.1112,30.0,29.7,11111222
Woodside,ioos:station:wmo:42874:2,2022-08-01T11:04:00Z,27.3171,-90.1112,30.0,29.6,11111222
Woodside,ioos:station:wmo:42874:2,2022-08-01T11:14:00Z,27.3171,-90.1112,30.0,29.4,11111222
Woodside,ioos:station:wmo:42874:2,2022-08-01T11:24:00Z,27.3175,-90.1113,30.0,29.4,11111222
Woodside,ioos:station:wmo:42874:2,2022-08-01T11:33:00Z,27.3173,-90.1112,30.0,29.5,11111222
Woodside,ioos:station:wmo:42874:2,2022-08-01T11:44:00Z,27.3172,-90.1112,30.0,29.5,11111222
Woodside,ioos:station:wmo:42874:2,2022-08-01T11:54:00Z,27.3172,-90.1112,30.0,29.5,11111222
Woodside,ioos:station:wmo:42874:2,2022-08-01T12:04:00Z,27.3172,-90.1112,30.0,29.5,11111222
Woodside,ioos:station:wmo:42874:2,2022-08-01T12:14:00Z,27.3172,-90.1112,30.0,29.5,11111222
Woodside,ioos:station:wmo:42874:2,2022-08-01T12:23:00Z,27.3172,-90.1112,30.0,29.5,11111222
Woodside,ioos:station:wmo:42874:2,2022-08-01T12:33:00Z,27.3171,-90.1111,30.0,29.4,11111222
Woodside,ioos:station:wmo:42874:2,2022-08-01T12:44:00Z,27.3171,-90.1111,30.0,29.5,11111222
Woodside,ioos:station:wmo:42874:2,2022-08-01T12:55:00Z,27.3171,-90.1111,30.0,29.5,11111222
Woodside,ioos:station:wmo:42874:2,2022-08-01T13:04:00Z,27.3171,-90.1111,30.0,29.5,11111222
Woodside,ioos:station:wmo:42874:2,2022-08-01T13:14:00Z,27.3171,-90.1110,30.0,29.5,11111222
Woodside,ioos:station:wmo:42874:2,2022-08-01T13:24:00Z,27.3170,-90.1110,30.0,29.5,11111222
Woodside,ioos:station:wmo:42874:2,2022-08-01T13:33:00Z,27.3170,-90.1110,30.0,29.5,11111222
Woodside,ioos:station:wmo:42874:2,2022-08-01T13:44:00Z,27.3170,-90.1110,30.0,29.5,11111222
Woodside,ioos:station:wmo:42874:2,2022-08-01T13:53:00Z,27.3170,-90.1110,30.0,29.5,11111222
Woodside,ioos:station:wmo:42874:2,2022-08-01T14:04:00Z,27.3171,-90.1112,30.0,29.5,11111222
Woodside,ioos:station:wmo:42874:2,2022-08-01T14:14:00Z,27.3171,-90.1112,30.0,29.5,11111222
Woodside,ioos:station:wmo:42874:2,2022-08-01T14:23:00Z,27.3171,-90.1112,30.0,29.5,11111222
Woodside,ioos:station:wmo:42874:2,2022-08-01T14:33:00Z,27.3172,-90.1112,30.0,29.5,11111222
Woodside,ioos:station:wmo:42874:2,2022-08-01T14:44:00Z,27.3172,-90.1112,30.0,29.5,11111222
Woodside,ioos:station:wmo:42874:2,2022-08-01T14:54:00Z,27.3172,-90.1112,30.0,29.5,11111222
Woodside,ioos:station:wmo:42874:2,2022-08-01T15:03:00Z,27.3172,-90.1112,30.0,29.5,11111222
Woodside,ioos:station:wmo:42874:2,2022-08-01T15:15:00Z,27.3172,-90.1112,30.0,29.5,11111222
Woodside,ioos:station:wmo:42874:2,2022-08-01T15:24:00Z,27.3170,-90.1111,30.0,29.4,11111222
Woodside,ioos:station:wmo:42874:2,2022-08-01T15:33:00Z,27.3172,-90.1111,30.0,29.5,11111222
Woodside,ioos:station:wmo:42874:2,2022-08-01T15:44:00Z,27.3172,-90.1111,30.0,29.5,11111222
Woodside,ioos:station:wmo:42874:2,2022-08-01T15:54:00Z,27.3171,-90.1111,30.0,29.5,11111222
Woodside,ioos:station:wmo:42874:2,2022-08-01T16:04:00Z,27.3171,-90.1111,30.0,29.5,11111222
Woodside,ioos:station:wmo:42874:2,2022-08-01T16:14:00Z,27.3171,-90.1111,30.0,29.5,11111222
Woodside,ioos:station:wmo:42874:2,2022-08-01T16:24:00Z,27.3171,-90.1111,30.0,29.5,11111222
Woodside,ioos:station:wmo:42874:2,2022-08-01T16:34:00Z,27.3171,-90.1111,30.0,29.5,11111222
Woodside,ioos:station:wmo:42874:2,2022-08-01T16:44:00Z,27.3171,-90.1111,30.0,29.5,11111222
Woodside,ioos:station:wmo:42874:2,2022-08-01T16:54:00Z,27.3171,-90.1109,30.0,29.6,11111222
Woodside,ioos:station:wmo:42874:2,2022-08-01T17:04:00Z,27.3171,-90.1109,30.0,29.6,11111222
Woodside,ioos:station:wmo:42874:2,2022-08-01T17:13:00Z,27.3171,-90.1109,30.0,29.7,11111222
Woodside,ioos:station:wmo:42874:2,2022-08-01T17:24:00Z,27.3171,-90.1109,30.0,29.6,11111222
Woodside,ioos:station:wmo:42874:2,2022-08-01T17:34:00Z,27.3171,-90.1110,30.0,29.6,11111222
Woodside,ioos:station:wmo:42874:2,2022-08-01T17:44:00Z,27.3171,-90.1110,30.0,29.7,11111222
Woodside,ioos:station:wmo:42874:2,2022-08-01T17:53:00Z,27.3171,-90.1110,30.0,29.7,11111222
Woodside,ioos:station:wmo:42874:2,2022-08-01T18:05:00Z,27.3172,-90.1114,30.0,29.6,11111222
Woodside,ioos:station:wmo:42874:2,2022-08-01T18:14:00Z,27.3172,-90.1114,30.0,29.5,11111222
Woodside,ioos:station:wmo:42874:2,2022-08-01T18:24:00Z,27.3171,-90.1111,30.0,29.6,11111222
Woodside,ioos:station:wmo:42874:2,2022-08-01T18:34:00Z,27.3171,-90.1111,30.0,29.7,11111222
Woodside,ioos:station:wmo:42874:2,2022-08-01T18:44:00Z,27.3171,-90.1111,30.0,29.7,11111222
Woodside,ioos:station:wmo:42874:2,2022-08-01T18:56:00Z,27.3171,-90.1111,30.0,29.6,11111222
Woodside,ioos:station:wmo:42874:2,2022-08-01T19:04:00Z,27.3171,-90.1111,30.0,29.9,11111222
Woodside,ioos:station:wmo:42874:2,2022-08-01T19:13:00Z,27.3171,-90.1111,30.0,30.0,11111222
Woodside,ioos:station:wmo:42874:2,2022-08-01T19:24:00Z,27.3171,-90.1111,30.0,29.9,11111222
Woodside,ioos:station:wmo:42874:2,2022-08-01T19:34:00Z,27.3171,-90.1111,30.0,29.7,11111222
Woodside,ioos:station:wmo:42874:2,2022-08-01T19:43:00Z,27.3171,-90.1111,30.0,29.6,11111222
Woodside,ioos:station:wmo:42874:2,2022-08-01T19:53:00Z,27.3171,-90.1111,30.0,29.7,11111222
Woodside,ioos:station:wmo:42874:2,2022-08-01T20:04:00Z,27.3172,-90.1112,30.0,29.7,11111222
Woodside,ioos:station:wmo:42874:2,2022-08-01T20:14:00Z,27.3172,-90.1112,30.0,29.7,11111222
Woodside,ioos:station:wmo:42874:2,2022-08-01T20:23:00Z,27.3171,-90.1111,30.0,29.7,11111222
Woodside,ioos:station:wmo:42874:2,2022-08-01T20:33:00Z,27.3171,-90.1111,30.0,29.7,11111222
Woodside,ioos:station:wmo:42874:2,2022-08-01T20:45:00Z,27.3171,-90.1111,30.0,29.7,11111222
Woodside,ioos:station:wmo:42874:2,2022-08-01T20:54:00Z,27.3171,-90.1111,30.0,29.6,11111222
Woodside,ioos:station:wmo:42874:2,2022-08-01T21:04:00Z,27.3171,-90.1110,30.0,29.7,11111222
Woodside,ioos:station:wmo:42874:2,2022-08-01T21:13:00Z,27.3171,-90.1110,30.0,29.9,11111222
Woodside,ioos:station:wmo:42874:2,2022-08-01T21:24:00Z,27.3171,-90.1110,30.0,30.0,11111222
Woodside,ioos:station:wmo:42874:2,2022-08-01T21:34:00Z,27.3171,-90.1110,30.0,30.0,11111222
Woodside,ioos:station:wmo:42874:2,2022-08-01T21:45:00Z,27.3171,-90.1110,30.0,30.1,11111222
Woodside,ioos:station:wmo:42874:2,2022-08-01T21:54:00Z,27.3171,-90.1110,30.0,30.1,11111222
Woodside,ioos:station:wmo:42874:2,2022-08-01T22:03:00Z,27.3171,-90.1110,30.0,30.1,11111222
Woodside,ioos:station:wmo:42874:2,2022-08-01T22:14:00Z,27.3171,-90.1110,30.0,30.1,11111222
Woodside,ioos:station:wmo:42874:2,2022-08-01T22:24:00Z,27.3170,-90.1110,30.0,30.0,11111222
Woodside,ioos:station:wmo:42874:2,2022-08-01T22:33:00Z,27.3170,-90.1110,30.0,29.9,11111222
Woodside,ioos:station:wmo:42874:2,2022-08-01T22:44:00Z,27.3171,-90.1112,30.0,29.9,11111222
Woodside,ioos:station:wmo:42874:2,2022-08-01T22:54:00Z,27.3171,-90.1112,30.0,29.9,11111222
Woodside,ioos:station:wmo:42874:2,2022-08-01T23:04:00Z,27.3171,-90.1112,30.0,29.9,11111222
Woodside,ioos:station:wmo:42874:2,2022-08-01T23:14:00Z,27.3171,-90.1112,30.0,29.9,11111222
Woodside,ioos:station:wmo:42874:2,2022-08-01T23:24:00Z,27.3171,-90.1112,30.0,29.9,11111222
Woodside,ioos:station:wmo:42874:2,2022-08-01T23:34:00Z,27.3171,-90.1112,30.0,29.9,11111222
Woodside,ioos:station:wmo:42874:2,2022-08-01T23:44:00Z,27.3171,-90.1112,30.0,29.8,11111222
Woodside,ioos:station:wmo:42874:2,2022-08-01T23:54:00Z,27.3171,-90.1112,30.0,29.9,11111222
Woodside,ioos:station:wmo:42874:2,2022-08-02T00:04:00Z,27.3171,-90.1112,30.0,30.1,11111222
Woodside,ioos:station:wmo:42874:2,2022-08-02T00:14:00Z,27.3171,-90.1112,30.0,30.2,11111222
Woodside,ioos:station:wmo:42874:2,2022-08-02T00:24:00Z,27.3171,-90.1111,30.0,30.2,11111222
Woodside,ioos:station:wmo:42874:2,2022-08-02T00:34:00Z,27.3171,-90.1111,30.0,30.2,11111222
Woodside,ioos:station:wmo:42874:2,2022-08-02T00:44:00Z,27.3171,-90.1111,30.0,30.2,11111222
Woodside,ioos:station:wmo:42874:2,2022-08-02T00:54:00Z,27.3171,-90.1111,30.0,30.2,11111222
Woodside,ioos:station:wmo:42874:2,2022-08-02T01:04:00Z,27.3171,-90.1112,30.0,30.1,11111222
Woodside,ioos:station:wmo:42874:2,2022-08-02T01:13:00Z,27.3171,-90.1112,30.0,30.1,11111222
Woodside,ioos:station:wmo:42874:2,2022-08-02T01:24:00Z,27.3171,-90.1112,30.0,30.1,11111222
Woodside,ioos:station:wmo:42874:2,2022-08-02T01:34:00Z,27.3171,-90.1112,30.0,30.1,11111222
Woodside,ioos:station:wmo:42874:2,2022-08-02T01:44:00Z,27.3171,-90.1111,30.0,30.2,11111222
Woodside,ioos:station:wmo:42874:2,2022-08-02T01:54:00Z,27.3171,-90.1111,30.0,30.1,11111222
Woodside,ioos:station:wmo:42874:2,2022-08-02T02:03:00Z,27.3171,-90.1111,30.0,30.1,11111222
Woodside,ioos:station:wmo:42874:2,2022-08-02T02:13:00Z,27.3171,-90.1111,30.0,30.2,11111222
Woodside,ioos:station:wmo:42874:2,2022-08-02T02:24:00Z,27.3171,-90.1111,30.0,30.2,11111222
Woodside,ioos:station:wmo:42874:2,2022-08-02T02:33:00Z,27.3171,-90.1111,30.0,30.2,11111222
Woodside,ioos:station:wmo:42874:2,2022-08-02T02:43:00Z,27.3171,-90.1111,30.0,30.1,11111222
Woodside,ioos:station:wmo:42874:2,2022-08-02T02:54:00Z,27.3171,-90.1110,30.0,30.1,11111222
Woodside,ioos:station:wmo:42874:2,2022-08-02T03:04:00Z,27.3171,-90.1110,30.0,30.1,11111222
Woodside,ioos:station:wmo:42874:2,2022-08-02T03:14:00Z,27.3171,-90.1110,30.0,30.2,11111222
Woodside,ioos:station:wmo:42874:2,2022-08-02T03:23:00Z,27.3172,-90.1116,30.0,30.2,11111222
Woodside,ioos:station:wmo:42874:2,2022-08-02T03:34:00Z,27.3172,-90.1115,30.0,30.1,11111222
Woodside,ioos:station:wmo:42874:2,2022-08-02T03:43:00Z,27.3172,-90.1115,30.0,30.1,11111222
Woodside,ioos:station:wmo:42874:2,2022-08-02T03:54:00Z,27.3172,-90.1115,30.0,30.1,11111222
Woodside,ioos:station:wmo:42874:2,2022-08-02T04:03:00Z,27.3172,-90.1115,30.0,30.1,11111222
Woodside,ioos:station:wmo:42874:2,2022-08-02T04:13:00Z,27.3172,-90.1113,30.0,30.1,11111222
Woodside,ioos:station:wmo:42874:2,2022-08-02T04:23:00Z,27.3172,-90.1113,30.0,30.1,11111222
Woodside,ioos:station:wmo:42874:2,2022-08-02T04:33:00Z,27.3172,-90.1113,30.0,30.1,11111222
Woodside,ioos:station:wmo:42874:2,2022-08-02T04:44:00Z,27.3172,-90.1113,30.0,30.2,11111222
Woodside,ioos:station:wmo:42874:2,2022-08-02T04:54:00Z,27.3172,-90.1113,30.0,30.1,11111222
Woodside,ioos:station:wmo:42874:2,2022-08-02T05:04:00Z,27.3172,-90.1113,30.0,30.2,11111222
Woodside,ioos:station:wmo:42874:2,2022-08-02T05:13:00Z,27.3172,-90.1113,30.0,30.1,11111222
Woodside,ioos:station:wmo:42874:2,2022-08-02T05:24:00Z,27.3171,-90.1113,30.0,30.2,11111222
Woodside,ioos:station:wmo:42874:2,2022-08-02T05:34:00Z,27.3171,-90.1113,30.0,30.2,11111222
Woodside,ioos:station:wmo:42874:2,2022-08-02T05:43:00Z,27.3171,-90.1112,30.0,30.2,11111222
Woodside,ioos:station:wmo:42874:2,2022-08-02T05:53:00Z,27.3172,-90.1113,30.0,30.2,11111222
Woodside,ioos:station:wmo:42874:2,2022-08-02T06:04:00Z,27.3172,-90.1113,30.0,30.1,11111222
Woodside,ioos:station:wmo:42874:2,2022-08-02T06:13:00Z,27.3172,-90.1113,30.0,30.1,11111222
Woodside,ioos:station:wmo:42874:2,2022-08-02T06:24:00Z,27.3172,-90.1113,30.0,30.2,11111222
Woodside,ioos:station:wmo:42874:2,2022-08-02T06:33:00Z,27.3175,-90.1113,30.0,30.2,11111222
Woodside,ioos:station:wmo:42874:2,2022-08-02T06:44:00Z,27.3174,-90.1113,30.0,30.2,11111222
Woodside,ioos:station:wmo:42874:2,2022-08-02T06:53:00Z,27.3174,-90.1113,30.0,30.2,11111222
Woodside,ioos:station:wmo:42874:2,2022-08-02T07:05:00Z,27.3174,-90.1113,30.0,30.2,11111222
Woodside,ioos:station:wmo:42874:2,2022-08-02T07:14:00Z,27.3174,-90.1113,30.0,30.1,11111222
Woodside,ioos:station:wmo:42874:2,2022-08-02T07:24:00Z,27.3174,-90.1113,30.0,30.2,11111222
Woodside,ioos:station:wmo:42874:2,2022-08-02T07:33:00Z,27.3174,-90.1113,30.0,30.2,11111222
Woodside,ioos:station:wmo:42874:2,2022-08-02T07:44:00Z,27.3174,-90.1113,30.0,30.1,11111222
Woodside,ioos:station:wmo:42874:2,2022-08-02T07:54:00Z,27.3174,-90.1113,30.0,30.2,11111222
Woodside,ioos:station:wmo:42874:2,2022-08-02T08:04:00Z,27.3171,-90.1112,30.0,30.1,11111222
Woodside,ioos:station:wmo:42874:2,2022-08-02T08:14:00Z,27.3171,-90.1112,30.0,30.1,11111222
Woodside,ioos:station:wmo:42874:2,2022-08-02T08:24:00Z,27.3171,-90.1112,30.0,30.2,11111222
Woodside,ioos:station:wmo:42874:2,2022-08-02T08:33:00Z,27.3171,-90.1112,30.0,30.1,11111222
Woodside,ioos:station:wmo:42874:2,2022-08-02T08:43:00Z,27.3171,-90.1112,30.0,30.2,11111222
Woodside,ioos:station:wmo:42874:2,2022-08-02T08:53:00Z,27.3171,-90.1112,30.0,30.2,11111222
Woodside,ioos:station:wmo:42874:2,2022-08-02T09:03:00Z,27.3171,-90.1112,30.0,30.2,11111222
Woodside,ioos:station:wmo:42874:2,2022-08-02T09:13:00Z,27.3171,-90.1112,30.0,30.2,11111222
Woodside,ioos:station:wmo:42874:2,2022-08-02T09:23:00Z,27.3171,-90.1112,30.0,30.2,11111222
Woodside,ioos:station:wmo:42874:2,2022-08-02T09:33:00Z,27.3171,-90.1112,30.0,30.2,11111222
Woodside,ioos:station:wmo:42874:2,2022-08-02T09:43:00Z,27.3171,-90.1112,30.0,30.2,11111222
Woodside,ioos:station:wmo:42874:2,2022-08-02T09:52:00Z,27.3171,-90.1112,30.0,30.2,11111222
Woodside,ioos:station:wmo:42874:2,2022-08-02T10:03:00Z,27.3171,-90.1111,30.0,30.2,11111222
Woodside,ioos:station:wmo:42874:2,2022-08-02T10:11:00Z,27.3171,-90.1111,30.0,30.2,11111222
Woodside,ioos:station:wmo:42874:2,2022-08-02T10:22:00Z,27.3171,-90.1111,30.0,30.2,11111222
Woodside,ioos:station:wmo:42874:2,2022-08-02T10:32:00Z,27.3171,-90.1111,30.0,30.2,11111222
Woodside,ioos:station:wmo:42874:2,2022-08-02T10:42:00Z,27.3171,-90.1111,30.0,30.2,11111222
Woodside,ioos:station:wmo:42874:2,2022-08-02T10:52:00Z,27.3171,-90.1111,30.0,30.2,11111222
Woodside,ioos:station:wmo:42874:2,2022-08-02T11:01:00Z,27.3171,-90.1111,30.0,30.2,11111222
Woodside,ioos:station:wmo:42874:2,2022-08-02T11:13:00Z,27.3171,-90.1111,30.0,30.2,11111222
Woodside,ioos:station:wmo:42874:2,2022-08-02T11:23:00Z,27.3171,-90.1111,30.0,30.2,11111222
Woodside,ioos:station:wmo:42874:2,2022-08-02T11:32:00Z,27.3171,-90.1111,30.0,30.1,11111222
Woodside,ioos:station:wmo:42874:2,2022-08-02T11:43:00Z,27.3171,-90.1111,30.0,30.2,11111222
Woodside,ioos:station:wmo:42874:2,2022-08-02T11:54:00Z,27.3172,-90.1111,30.0,30.1,11111222
Woodside,ioos:station:wmo:42874:2,2022-08-02T12:03:00Z,27.3172,-90.1111,30.0,30.1,11111222
Woodside,ioos:station:wmo:42874:2,2022-08-02T12:13:00Z,27.3172,-90.1111,30.0,30.1,11111222
Woodside,ioos:station:wmo:42874:2,2022-08-02T12:24:00Z,27.3172,-90.1111,30.0,30.1,11111222
Woodside,ioos:station:wmo:42874:2,2022-08-02T12:34:00Z,27.3172,-90.1111,30.0,30.1,11111222
Woodside,ioos:station:wmo:42874:2,2022-08-02T12:44:00Z,27.3172,-90.1111,30.0,30.1,11111222
Woodside,ioos:station:wmo:42874:2,2022-08-02T12:55:00Z,27.3172,-90.1111,30.0,30.1,11111222
Woodside,ioos:station:wmo:42874:2,2022-08-02T13:03:00Z,27.3171,-90.1110,30.0,30.1,11111222
Woodside,ioos:station:wmo:42874:2,2022-08-02T13:14:00Z,27.3171,-90.1110,30.0,30.1,11111222
Woodside,ioos:station:wmo:42874:2,2022-08-02T13:24:00Z,27.3171,-90.1110,30.0,30.1,11111222
Woodside,ioos:station:wmo:42874:2,2022-08-02T13:34:00Z,27.3171,-90.1110,30.0,30.1,11111222
Woodside,ioos:station:wmo:42874:2,2022-08-02T13:44:00Z,27.3171,-90.1111,30.0,30.1,11111222
Woodside,ioos:station:wmo:42874:2,2022-08-02T13:53:00Z,27.3172,-90.1111,30.0,30.1,11111222
Woodside,ioos:station:wmo:42874:2,2022-08-02T14:03:00Z,27.3172,-90.1111,30.0,30.1,11111222
Woodside,ioos:station:wmo:42874:2,2022-08-02T14:14:00Z,27.3172,-90.1111,30.0,30.1,11111222
Woodside,ioos:station:wmo:42874:2,2022-08-02T14:24:00Z,27.3172,-90.1111,30.0,30.1,11111222
Woodside,ioos:station:wmo:42874:2,2022-08-02T14:35:00Z,27.3172,-90.1111,30.0,30.1,11111222
Woodside,ioos:station:wmo:42874:2,2022-08-02T14:44:00Z,27.3172,-90.1111,30.0,30.1,11111222
Woodside,ioos:station:wmo:42874:2,2022-08-02T14:54:00Z,27.3171,-90.1111,30.0,30.1,11111222
Woodside,ioos:station:wmo:42874:2,2022-08-02T15:03:00Z,27.3171,-90.1111,30.0,30.1,11111222
Woodside,ioos:station:wmo:42874:2,2022-08-02T15:14:00Z,27.3171,-90.1111,30.0,30.1,11111222
Woodside,ioos:station:wmo:42874:2,2022-08-02T15:24:00Z,27.3171,-90.1111,30.0,30.1,11111222
Woodside,ioos:station:wmo:42874:2,2022-08-02T15:34:00Z,27.3171,-90.1111,30.0,30.1,11111222
Woodside,ioos:station:wmo:42874:2,2022-08-02T15:43:00Z,27.3171,-90.1111,30.0,30.0,11111222
Woodside,ioos:station:wmo:42874:2,2022-08-02T15:53:00Z,27.3172,-90.1111,30.0,29.9,11111222
Woodside,ioos:station:wmo:42874:2,2022-08-02T16:03:00Z,27.3172,-90.1111,30.0,30.0,11111222
Woodside,ioos:station:wmo:42874:2,2022-08-02T16:13:00Z,27.3172,-90.1111,30.0,30.1,11111222
Woodside,ioos:station:wmo:42874:2,2022-08-02T16:23:00Z,27.3171,-90.1111,30.0,30.1,11111222
Woodside,ioos:station:wmo:42874:2,2022-08-02T16:33:00Z,27.3171,-90.1110,30.0,30.1,11111222
Woodside,ioos:station:wmo:42874:2,2022-08-02T16:43:00Z,27.3172,-90.1110,30.0,30.1,11111222
Woodside,ioos:station:wmo:42874:2,2022-08-02T16:52:00Z,27.3172,-90.1110,30.0,30.1,11111222
Woodside,ioos:station:wmo:42874:2,2022-08-02T17:04:00Z,27.3172,-90.1110,30.0,30.1,11111222
Woodside,ioos:station:wmo:42874:2,2022-08-02T17:14:00Z,27.3172,-90.1111,30.0,30.1,11111222
Woodside,ioos:station:wmo:42874:2,2022-08-02T17:23:00Z,27.3172,-90.1111,30.0,30.1,11111222
Woodside,ioos:station:wmo:42874:2,2022-08-02T17:33:00Z,27.3172,-90.1111,30.0,30.1,11111222
Woodside,ioos:station:wmo:42874:2,2022-08-02T17:44:00Z,27.3171,-90.1110,30.0,30.1,11111222
Woodside,ioos:station:wmo:42874:2,2022-08-02T17:52:00Z,27.3171,-90.1110,30.0,30.1,11111222
Woodside,ioos:station:wmo:42874:2,2022-08-02T18:03:00Z,27.3171,-90.1110,30.0,30.1,11111222
Woodside,ioos:station:wmo:42874:2,2022-08-02T18:13:00Z,27.3171,-90.1110,30.0,30.0,11111222
Woodside,ioos:station:wmo:42874:2,2022-08-02T18:23:00Z,27.3171,-90.1110,30.0,29.9,11111222
Woodside,ioos:station:wmo:42874:2,2022-08-02T18:34:00Z,27.3171,-90.1110,30.0,29.8,11111222
Woodside,ioos:station:wmo:42874:2,2022-08-02T18:43:00Z,27.3171,-90.1110,30.0,29.6,11111222
Woodside,ioos:station:wmo:42874:2,2022-08-02T18:53:00Z,27.3171,-90.1110,30.0,29.5,11111222
Woodside,ioos:station:wmo:42874:2,2022-08-02T19:03:00Z,27.3171,-90.1111,30.0,29.5,11111222